Погода в Эль-Хасабе

Оман     26°10′41″N   56°14′58″E
темп.,
°C
ветер,
м/с
пор.,
м/с
влажн.,
%
обл.,
%
осадки,
мм/ч
давл.,
гПа
погр.,
м
8 марта, пн
пн801:00+19юз910680 0.0 1012305
04:00+18юз89700 0.0 1011307
07:00+19юз78620 0.0 1013274
10:00+22зюз77550 0.0 1015505
13:00+23зюз89550 0.0 1012651
16:00+23зюз89550 0.0 1010542
19:00+20юз89640 0.0 1011246
22:00+20юз89550 0.0 1013245
9 марта, вт
вт901:00+21юз56410 0.0 1012166
04:00+19юз78560 0.0 1012245
07:00+21зюз55470 0.0 1014178
10:00+24зюз55510 0.0 1015371
13:00+24зсз45500 0.0 1013431
16:00+26зюз710390 0.0 1011458
19:00+25юз78360 0.0 1012101
22:00+24ююз55390 0.0 101351
10 марта, ср
ср1001:00+23юз33480 0.0 101235
04:00+23юз23450 0.0 101126
07:00+23зюз33490 0.0 101347
10:00+27зюз68390 0.0 1014432
13:00+27зюз912370 0.0 1012710
16:00+28юз1014330 0.0 1009562
19:00+26юз1013280 0.0 1010220
22:00+25юз1013330 0.0 1012214
11 марта, чт
чт1101:00+24юз912420 0.0 1011215
04:00+24юз79460 0.0 1009131
07:00+24юз79440 0.0 1011115
10:00+27зюз56370 0.0 1012342
13:00+28зюз710390 0.0 1009615
16:00+29зюз811310 0.0 1007624
19:00+26юз79360 0.0 1008104
22:00+25юз810410 0.0 1009134
12 марта, пт
пт1201:00+25юз79384 0.0 1009107
04:00+25юз56359 0.0 100854
07:00+25ю34350 0.0 100825
10:00+28с23411 0.0 1009408
13:00+28с153713 0.0 1006676
16:00+26сз244221 0.0 1004336
19:00+26юв554277 0.0 100543
22:00+24юз335058 0.0 100628